[[{"header":{"parameterUnit":"m.s-1","parameterCategory":1,"la1":30.2991,"la2":30.254,"lo1":-89.0895,"lo2":-89.0444,"dy":0.0017,"dx":0.0017,"nx":28,"ny":28,"refTime":"2025-03-19T09:00:00:Z","depth":0,"parameterNumber":2,"parameterNumberName":"U-component_of_WINDS"},"data":[0,0,0,0,0,0,0,0,0,0,0,0,0,0,0,0,0,0,0,0,0,0,0,0,0,0,0,0,0,0,0,0,0,0,0,0,0,0,0,0,0,0,0,0,0,0,0,0,0,0,0,0,0,0,0,0,0,0,3.8786,3.8786,0,3.8738,3.8738,3.8737,3.8631,3.8629,3.8627,3.8625,3.8579,3.858,3.8581,0,0,0,0,0,0,0,0,0,0,0,0,0,3.8791,3.8792,3.8786,3.8786,3.8785,3.8738,3.8738,3.8737,3.8631,3.8629,3.8626,3.8624,3.8579,3.858,3.8581,0,0,0,0,0,0,0,0,0,0,0,0,0,3.8771,3.8792,3.8787,3.8727,3.8721,3.8738,3.8738,3.8737,3.8632,3.8629,3.8625,3.8622,3.8578,3.858,3.8581,3.8654,0,0,3.8585,3.8585,0,0,0,0,0,0,0,0,3.8772,3.8771,3.8736,3.8731,3.8724,3.8687,3.8722,3.8709,3.8633,3.8666,3.8625,3.8621,3.8618,3.8616,3.8614,3.8651,3.865,3.8585,3.8585,3.8586,3.8586,0,0,0,0,0,0,0,3.8774,3.8772,3.8767,3.8736,3.8729,3.8704,3.8697,3.8719,3.8661,3.8663,3.8655,3.865,3.8614,3.8613,3.8612,3.8649,3.8585,3.8586,3.8586,3.8587,3.8744,3.8747,0,0,0,0,0,0,3.8783,3.8774,3.8769,3.8766,3.8741,3.8706,3.8699,3.8703,3.866,3.8651,3.8653,3.8646,3.8612,3.8611,3.861,3.8692,3.8586,3.8587,3.8588,3.8741,3.8745,3.8749,0,0,0,0,0,0,3.8784,3.8784,3.8771,3.8768,3.8764,3.871,3.8714,3.8703,3.8702,3.8653,3.8643,3.8663,3.861,3.8608,3.8643,3.8689,3.8588,3.8589,3.8737,3.8742,3.8747,3.8857,0,0,0,0,0,0,3.8784,3.8785,3.8811,3.8769,3.8765,3.8804,3.8717,3.8705,3.8704,3.8693,3.8659,3.865,3.8607,3.8642,3.8645,3.8689,3.859,3.8732,3.8739,3.8745,3.8849,3.8866,3.888,0,0,0,0,0,3.8785,3.8844,3.8812,3.8812,3.8796,3.8807,3.8804,3.8753,3.8708,3.8734,3.8703,3.8651,3.8684,3.8647,3.8648,3.8694,3.8729,3.8737,3.8745,3.8843,3.8862,3.8879,0,0,0,0,0,0,3.8894,3.8838,3.8802,3.8849,3.8834,3.8789,3.882,3.8775,3.8773,3.8763,3.87,3.8693,3.8737,3.8719,3.8678,3.8762,3.8698,3.8707,3.8772,3.8791,3.8806,3.8809,3.8591,0,0,0,0,0,3.8923,3.8935,3.8886,3.8933,3.8927,3.8876,3.8878,3.884,3.8821,3.8814,3.8785,3.8771,3.8777,3.8783,3.8787,3.8847,3.8838,3.8879,3.8894,3.8907,3.8915,3.8945,3.8963,3.8774,3.8774,3.8774,0,0,3.8984,3.8955,3.8967,3.8955,3.8937,3.8953,3.8871,3.889,3.8901,3.8818,3.8848,3.8827,3.8806,3.8854,3.8874,3.8841,3.8965,3.8917,3.8927,3.8928,3.8955,3.8973,3.8989,3.8779,3.8778,3.8778,0,0,3.9103,3.9082,3.9119,3.9104,3.9079,3.9044,3.9053,3.9016,3.8998,3.9028,3.8965,3.8979,3.8992,3.8979,3.8975,3.909,3.9043,3.9094,3.9172,3.9203,3.9218,3.9231,3.9271,3.9287,3.9102,3.9102,3.9102,0,3.9182,3.9201,3.9144,3.9167,3.9164,3.9088,3.9125,3.9114,3.9093,3.9093,3.9056,3.907,3.9051,3.9095,3.9123,3.9122,3.9131,3.9097,3.922,3.9232,3.9243,3.9282,3.9297,3.9108,3.9108,3.9107,3.9106,0,3.93,3.9314,3.9347,3.9326,3.9327,3.9358,3.9306,3.9314,3.9276,3.9246,3.9278,3.9252,3.9249,3.9257,3.9221,3.9297,3.9277,3.9231,3.9165,3.9269,3.9304,3.9318,3.9117,3.9115,3.9113,3.9112,0,0,3.9484,3.9432,3.9445,3.9435,3.9403,3.9413,3.9441,3.9437,3.9445,3.9433,3.9455,3.9469,3.9426,3.9421,3.9383,3.941,3.9503,3.9361,3.9359,3.9387,3.9585,3.9619,3.9636,3.9472,3.9474,3.9476,3.9586,0,3.9594,3.9636,3.9587,3.964,3.9653,3.9583,3.9607,3.9591,3.9564,3.9572,3.9543,3.9553,3.9496,3.9493,3.9516,3.9487,3.9542,3.9478,3.9492,3.9493,3.9498,3.9655,3.969,3.9795,3.96,3.9602,3.9603,0,3.9728,3.9721,3.9776,3.9741,3.9744,3.9767,3.9759,3.9768,3.9748,3.9727,3.9722,3.9676,3.9702,3.9639,3.9675,3.9633,3.9636,3.9622,3.9625,3.9623,3.9554,3.9657,3.9827,3.9843,3.9625,3.9623,3.9621,0,3.9856,3.9861,3.9894,3.9888,3.9848,3.9865,3.985,3.9827,3.9828,3.9823,3.9823,3.9821,3.982,3.982,3.9776,3.9734,3.9817,3.975,3.98,3.9801,3.9819,3.9819,3.9992,3.9824,3.9824,3.9823,3.9823,0,3.9984,4.002,3.9951,3.9972,4.0011,3.9954,3.9994,3.9972,3.9953,3.9968,3.9908,3.9925,3.9865,3.9875,3.9841,3.9875,3.9876,3.986,3.985,3.9864,3.9866,3.9865,3.9856,3.9827,3.9827,3.9826,3.9825,0,4.0132,4.0088,4.0119,4.0079,4.007,4.01,4.0066,4.0084,4.0054,4.0074,4.0076,4.0029,4.0038,3.9994,3.9996,3.9973,4.0025,4.0003,4.0031,4.0024,4.0076,4.0071,4.0253,4.0274,4.0094,4.0096,4.0097,0,4.0216,4.0242,4.0204,4.021,4.0197,4.0207,4.0207,4.0154,4.0157,4.0138,4.0158,4.0163,4.0163,4.0181,4.0148,4.0149,4.0127,4.0191,4.0127,4.014,4.0127,4.0125,4.0128,4.0204,4.0206,4.0208,4.0209,0,4.0369,4.0346,4.0348,4.0344,4.0346,4.034,4.033,4.0338,4.028,4.0288,4.0296,4.0296,4.0298,4.0303,4.0297,4.0283,4.0237,4.023,4.0241,4.0256,4.027,4.0262,4.0066,4.0225,4.0224,4.0223,4.0222,4.0221,4.0487,4.0506,4.0483,4.0488,4.0475,4.0467,4.0482,4.0454,4.0459,4.0455,4.0424,4.0438,4.042,4.0407,4.0397,4.0409,4.0378,4.0395,4.0399,4.0404,4.0413,4.027,4.0408,4.0407,4.0407,4.0406,4.0406,0,4.0636,4.0617,4.0623,4.061,4.0615,4.0571,4.0558,4.0565,4.0577,4.0563,4.0565,4.0575,4.058,4.0548,4.0548,4.0564,4.0543,4.0566,4.0563,4.0561,4.044,4.043,4.0583,4.0583,4.0583,4.0583,4.0583,4.0583,4.0713,4.0744,4.0719,4.0744,4.0725,4.0738,4.0734,4.0727,4.0716,4.0729,4.0732,4.0711,4.069,4.0689,4.0692,4.0683,4.0685,4.0716,4.0699,4.0587,4.0569,4.0553,4.0543,4.0717,4.0717,4.0818,4.0819,4.082]},{"header":{"parameterUnit":"m.s-1","parameterCategory":1,"la1":30.2991,"la2":30.254,"lo1":-89.0895,"lo2":-89.0444,"dy":0.0017,"dx":0.0017,"nx":28,"ny":28,"refTime":"2025-03-19T09:00:00:Z","depth":0,"parameterNumber":3,"parameterNumberName":"V-component_of_WINDS"},"data":[0,0,0,0,0,0,0,0,0,0,0,0,0,0,0,0,0,0,0,0,0,0,0,0,0,0,0,0,0,0,0,0,0,0,0,0,0,0,0,0,0,0,0,0,0,0,0,0,0,0,0,0,0,0,0,0,0,0,5.3759,5.3762,0,5.4026,5.4029,5.4032,5.4083,5.4081,5.4079,5.4077,5.4348,5.4357,5.4366,0,0,0,0,0,0,0,0,0,0,0,0,0,5.3289,5.3298,5.3758,5.3762,5.3765,5.4025,5.4029,5.4033,5.4084,5.4081,5.4079,5.4076,5.4345,5.4356,5.4367,0,0,0,0,0,0,0,0,0,0,0,0,0,5.3518,5.33,5.3758,5.3822,5.383,5.4025,5.4029,5.4034,5.4084,5.4081,5.4078,5.4075,5.4342,5.4355,5.4369,5.4517,0,0,5.4411,5.4417,0,0,0,0,0,0,0,0,5.3505,5.3535,5.3809,5.3818,5.3828,5.4018,5.3963,5.4196,5.4085,5.3988,5.4077,5.4074,5.4241,5.4263,5.432,5.453,5.4541,5.4412,5.442,5.4426,5.443,0,0,0,0,0,0,0,5.3489,5.3524,5.3864,5.3813,5.3825,5.3837,5.3866,5.4007,5.4129,5.3996,5.4001,5.4032,5.4245,5.4306,5.4327,5.4545,5.4412,5.4424,5.4432,5.4438,5.489,5.4893,0,0,0,0,0,0,5.3462,5.3511,5.3856,5.3872,5.3656,5.3848,5.388,5.396,5.4127,5.415,5.4034,5.4033,5.4284,5.431,5.4336,5.4521,5.4426,5.4439,5.4447,5.4886,5.489,5.4894,0,0,0,0,0,0,5.3452,5.3493,5.3845,5.3693,5.3739,5.3859,5.3949,5.3967,5.4028,5.4156,5.4178,5.4074,5.4283,5.4317,5.4472,5.4531,5.4445,5.4458,5.4881,5.4887,5.4892,5.4891,0,0,0,0,0,0,5.3438,5.3489,5.3547,5.3694,5.3747,5.3977,5.3952,5.3975,5.4052,5.4053,5.42,5.4221,5.4283,5.4451,5.4485,5.4548,5.4469,5.4877,5.4884,5.4891,5.4886,5.4896,5.4904,0,0,0,0,0,5.3422,5.3536,5.355,5.3591,5.3822,5.398,5.401,5.4081,5.4057,5.4116,5.4198,5.4216,5.4519,5.4466,5.4506,5.4574,5.4873,5.4882,5.489,5.4882,5.4894,5.4904,0,0,0,0,0,0,5.3392,5.3556,5.3574,5.3739,5.3845,5.3989,5.4066,5.4091,5.4206,5.4202,5.4283,5.4315,5.4466,5.4535,5.4474,5.4726,5.4694,5.4711,5.4675,5.4687,5.4696,5.4676,5.448,0,0,0,0,0,5.3405,5.3521,5.3657,5.379,5.3842,5.3945,5.4016,5.4061,5.4174,5.4219,5.4313,5.4421,5.454,5.4617,5.4735,5.4896,5.4928,5.4962,5.4971,5.4978,5.4991,5.5081,5.5098,5.4922,5.4922,5.4922,0,0,5.3432,5.3536,5.3604,5.3786,5.3874,5.3991,5.3982,5.4107,5.4194,5.4238,5.439,5.4462,5.4588,5.4747,5.4822,5.481,5.5047,5.4988,5.4993,5.5003,5.5092,5.5108,5.5123,5.4928,5.4927,5.4926,0,0,5.3543,5.3633,5.3753,5.3842,5.3975,5.4042,5.4071,5.4211,5.4261,5.4415,5.445,5.4554,5.4758,5.4847,5.4919,5.5061,5.5082,5.5097,5.5143,5.523,5.5244,5.5257,5.5307,5.5325,5.511,5.511,5.511,0,5.356,5.3739,5.3812,5.3935,5.4014,5.4059,5.4181,5.4263,5.4427,5.448,5.4464,5.4721,5.4809,5.4989,5.5024,5.508,5.5115,5.5081,5.5236,5.525,5.5263,5.5312,5.5331,5.5111,5.511,5.511,5.511,0,5.3754,5.3877,5.3958,5.4116,5.4204,5.4326,5.4416,5.4496,5.4532,5.46,5.4756,5.4863,5.5003,5.5049,5.5085,5.5234,5.5222,5.522,5.5191,5.5279,5.5327,5.5346,5.5112,5.5112,5.5111,5.5111,0,0,5.3854,5.4051,5.4079,5.4152,5.4301,5.4398,5.4521,5.4658,5.4725,5.4836,5.4941,5.5112,5.5111,5.5192,5.5239,5.5315,5.5421,5.5304,5.5308,5.5322,5.559,5.5591,5.5612,5.5435,5.5439,5.5442,5.558,0,5.3983,5.4206,5.4274,5.446,5.4575,5.4619,5.4726,5.4829,5.4895,5.5001,5.5075,5.5195,5.5185,5.5234,5.5311,5.5391,5.5476,5.5382,5.5533,5.5537,5.5501,5.5637,5.5639,5.5764,5.5599,5.5602,5.5605,0,5.4163,5.4278,5.4476,5.4611,5.4661,5.4757,5.4888,5.4989,5.5105,5.5148,5.5239,5.5279,5.5408,5.537,5.5548,5.5483,5.5548,5.5597,5.5603,5.5621,5.5577,5.5658,5.5806,5.5824,5.5635,5.5632,5.563,0,5.4216,5.4421,5.4566,5.4626,5.4787,5.4853,5.4923,5.5037,5.5115,5.5228,5.5279,5.5406,5.5475,5.5572,5.5645,5.561,5.5816,5.5785,5.5855,5.5853,5.5897,5.5894,5.6058,5.5938,5.5938,5.5937,5.5937,0,5.4353,5.4472,5.4592,5.4681,5.4815,5.4892,5.5023,5.5095,5.5196,5.5298,5.5343,5.5439,5.5529,5.5636,5.5693,5.5832,5.5863,5.5901,5.5915,5.5897,5.5892,5.5942,5.5935,5.5943,5.5941,5.594,5.594,0,5.4436,5.4521,5.4682,5.4821,5.4859,5.4952,5.5071,5.5158,5.5226,5.5356,5.539,5.5497,5.5625,5.5707,5.587,5.5908,5.606,5.6071,5.6021,5.6028,5.6094,5.6086,5.6296,5.6327,5.6185,5.6187,5.6188,0,5.4518,5.4611,5.4761,5.4833,5.4904,5.5021,5.51,5.5179,5.526,5.54,5.547,5.5601,5.571,5.5912,5.6004,5.6128,5.6143,5.6207,5.6162,5.6141,5.6144,5.6138,5.6147,5.6215,5.6216,5.6217,5.6218,0,5.4655,5.4692,5.4806,5.4935,5.5029,5.5134,5.5239,5.5295,5.5391,5.548,5.5612,5.5697,5.5863,5.5992,5.6125,5.6195,5.6223,5.6231,5.6254,5.6238,5.6205,5.6224,5.6042,5.6226,5.6225,5.6225,5.6224,5.6224,5.4741,5.4826,5.4944,5.5069,5.5156,5.5253,5.5342,5.5421,5.5533,5.5676,5.5714,5.5852,5.5965,5.6147,5.6219,5.6327,5.6319,5.6352,5.6361,5.6368,5.6369,5.6187,5.6352,5.6351,5.6351,5.6351,5.6351,0,5.488,5.4959,5.5073,5.5218,5.5317,5.5334,5.5451,5.5531,5.5652,5.5756,5.5863,5.6014,5.614,5.624,5.6369,5.6436,5.6451,5.6467,5.6463,5.6479,5.6369,5.6336,5.6452,5.6452,5.6452,5.6452,5.6452,5.6452,5.4964,5.5109,5.516,5.5347,5.5424,5.5561,5.5625,5.5714,5.5798,5.5965,5.607,5.6135,5.6237,5.6374,5.6489,5.6515,5.6561,5.6574,5.6602,5.6498,5.6487,5.6476,5.6446,5.6583,5.6583,5.6704,5.6705,5.6706]}]]